Regional Weather Roundup
Issued by NWS Cleveland, OH

Home | Current Version | Previous Version | Graphics & Text | Print | Product List | Glossary On
Versions: 1 2 3 4 5 6 7 8 9 10 11 12 13 14 15 16 17 18 19 20 21 22 23 24 25 26 27 28 29 30 31 32 33 34 35 36 37 38 39 40 41 42 43 44 45 46 47 48 49 50
000
ASUS41 KCLE 021810
RWRCLE
OHIO REGIONAL WEATHER ROUNDUP
NATIONAL WEATHER SERVICE CLEVELAND, OH
100 PM EST MON MAR 02 2015

NOTE: "FAIR" INDICATES FEW OR NO CLOUDS BELOW 12,000 FEET WITH NO
SIGNIFICANT WEATHER AND/OR OBSTRUCTIONS TO VISIBILITY.

OHZ001>008-015>018-024>027-034-035-043-044-021900-
   NORTHWEST OHIO

CITY           SKY/WX    TMP DP  RH WIND       PRES   REMARKS
DEFIANCE       SUNNY     27  16  63 VRB7      30.51S WCI  19
FINDLAY        SUNNY     22  14  71 W10       30.50R WCI  11
TOLEDO EXPRESS SUNNY     26  15  63 W12       30.49R WCI  16
TOLEDO EXEC    SUNNY     25  15  66 SW13      30.49S WCI  14
LIMA           SUNNY     25  15  66 SW6       30.50R WCI  18
$$

OHZ009>014-019>023-028>033-038-089-021900-
   NORTHEAST OHIO

CITY           SKY/WX    TMP DP  RH WIND       PRES   REMARKS
CLE-HOPKINS    MOSUNNY   26  12  55 W13       30.49R WCI  15
CLE-LAKEFRONT  SUNNY     24  16  71 W14       30.47S WCI  12
CUY CO. ARPT   MOSUNNY   27  18  69 W14       30.46S WCI  15
LORAIN-ELYRIA  SUNNY     26  13  57 NW10      30.47R WCI  16
ASHTABULA      MOSUNNY   25  12  58 W14       30.43R WCI  13
AKRON-CANTON   PTSUNNY   26  15  63 SW8       30.43S WCI  18
WOOSTER        MOSUNNY   25  14  63 W10       30.46S WCI  15
MANSFIELD      SUNNY     25  12  58 NW8       30.45S WCI  16
YOUNGSTOWN     PTSUNNY   27  11  51 NW12G21   30.40S WCI  17
$$

OHZ042-051>053-060>062-070>072-077>081-021900-
  SOUTHWEST OHIO

CITY           SKY/WX    TMP DP  RH WIND       PRES   REMARKS
CINC-COVINGTON PTSUNNY   32  16  51 W3        30.51F
CINC-LUNKEN    SUNNY     32  15  49 NE3       30.55F
HAMILTON       SUNNY     31  15  52 CALM      30.54F
DAYTON         PTSUNNY   28  14  55 N5        30.51F WCI  23
WRIGHT-PAT AFB SUNNY     27  13  56 N2        30.52F
DAYTON GENERAL SUNNY     28  14  55 CALM      30.50S
WILMINGTON     SUNNY     27  12  53 N6        30.50F WCI  20
$$

OHZ036-037-039>041-045>050-054>059-063>069-073>076-082>088-021900-
  CENTRAL AND SOUTHEAST OHIO

CITY           SKY/WX    TMP DP  RH WIND       PRES   REMARKS
COLUMBUS       PTSUNNY   28  13  53 CALM      30.50F
OSU AIRPORT    SUNNY     26  14  60 W6        30.49F WCI  19
BOLTON FIELD   SUNNY     27  12  54 NW7       30.51F WCI  19
RICKENBACK AFB SUNNY     27  16  64 SW6       30.51S WCI  20
NEWARK         SUNNY     28  13  53 W8        30.48F WCI  20
MARION         SUNNY     25  13  60 W6        30.49S WCI  18
LANCASTER      PTSUNNY   26  17  68 W6        30.50F WCI  19
ZANESVILLE     SUNNY     28  15  58 W8        30.47F WCI  20
NEW PHILLY     PTSUNNY   29  15  56 W6        30.47F WCI  23
$$



USA.gov is the U.S. government's official web portal to all federal, state and local government web resources and services.